 day,  time,  air_temp(C),  RH(%),  ground_temp10cm(C),  ground_temp20cm(C),  ground_temp40cm(C),  precipitation(mm/h),  Solar_Radiation(MJ/m2h),  lack, 
 04/04/01, 01:00,  -3.0,  49,   3.4,   4.2,   3.3,   0.0,  0.00, 
 04/04/01, 02:00,  -3.0,  46,   3.2,   4.1,   3.3,   0.0,  0.00, 
 04/04/01, 03:00,  -3.3,  48,   2.9,   4.0,   3.3,   0.0,  0.00, 
 04/04/01, 04:00,  -4.5,  66,   2.7,   3.9,   3.3,   0.0,  0.00, 
 04/04/01, 05:00,  -4.3,  58,   2.5,   3.8,   3.3,   0.0,  0.00, 
 04/04/01, 06:00,  -3.9,  51,   2.3,   3.7,   3.3,   0.0,  0.00, 
 04/04/01, 07:00,  -2.0,  46,   2.2,   3.6,   3.3,   0.0,  0.37, 
 04/04/01, 08:00,  -1.4,  53,   2.0,   3.5,   3.3,   0.0,  1.20, 
 04/04/01, 09:00,   0.2,  56,   2.0,   3.4,   3.3,   0.0,  2.00, 
 04/04/01, 10:00,   3.4,  40,   1.9,   3.3,   3.3,   0.0,  2.64, 
 04/04/01, 11:00,   5.7,  35,   2.1,   3.2,   3.3,   0.0,  3.09, 
 04/04/01, 12:00,   5.7,  29,   2.8,   3.2,   3.4,   0.0,  3.31, 
 04/04/01, 13:00,   7.5,  27,   3.9,   3.2,   3.3,   0.0,  3.30, 
 04/04/01, 14:00,   8.6,  32,   4.8,   3.2,   3.3,   0.0,  3.06, 
 04/04/01, 15:00,   8.5,  27,   5.2,   3.3,   3.4,   0.0,  2.56, 
 04/04/01, 16:00,   8.6,  26,   5.3,   3.5,   3.3,   0.0,  1.90, 
 04/04/01, 17:00,   8.4,  27,   5.4,   3.6,   3.4,   0.0,  1.08, 
 04/04/01, 18:00,   5.9,  42,   5.2,   3.8,   3.4,   0.0,  0.19, 
 04/04/01, 19:00,   5.7,  35,   5.0,   3.9,   3.4,   0.0,  0.00, 
 04/04/01, 20:00,   5.4,  40,   4.8,   4.0,   3.4,   0.0,  0.00, 
 04/04/01, 21:00,   4.5,  47,   4.7,   4.1,   3.4,   0.0,  0.00, 
 04/04/01, 22:00,   4.1,  48,   4.5,   4.1,   3.4,   0.0,  0.00, 
 04/04/01, 23:00,   2.8,  61,   4.4,   4.1,   3.4,   0.0,  0.00, 
 04/04/02, 00:00,   3.2,  66,   4.2,   4.1,   3.4,   0.0,  0.00, 
 04/04/02, 01:00,   1.8,  91,   4.1,   4.1,   3.4,   0.0,  0.00, 
 04/04/02, 02:00,   1.9,  99,   4.0,   4.1,   3.4,   1.0,  0.00, 
 04/04/02, 03:00,   1.9,  99,   3.8,   4.0,   3.4,   2.0,  0.00, 
 04/04/02, 04:00,   2.1,  98,   3.7,   4.0,   3.4,   2.5,  0.00, 
 04/04/02, 05:00,   2.2,  94,   3.5,   4.0,   3.4,   1.0,  0.00, 
 04/04/02, 06:00,   3.3,  88,   3.4,   3.9,   3.4,   1.0,  0.00, 
 04/04/02, 07:00,   3.6,  87,   3.3,   3.9,   3.3,   0.0,  0.00, 
 04/04/02, 08:00,   2.6,  97,   3.2,   3.8,   3.3,   0.5,  0.06, 
 04/04/02, 09:00,   3.2,  99,   3.2,   3.8,   3.5,   0.5,  0.26, 
 04/04/02, 10:00,   4.9,  99,   3.2,   3.7,   3.5,   0.5,  0.50, 
 04/04/02, 11:00,   4.6,  99,   3.3,   3.7,   3.5,   0.0,  0.49, 
 04/04/02, 12:00,   5.5,  99,   3.5,   3.6,   3.5,   0.0,  1.11, 
 04/04/02, 13:00,   4.6,  99,   3.7,   3.6,   3.5,   0.5,  0.53, 
 04/04/02, 14:00,   4.0,  87,   3.9,   3.6,   3.4,   0.0,  1.15, 
 04/04/02, 15:00,   5.8,  74,   4.1,   3.6,   3.4,   0.0,  2.12, 
 04/04/02, 16:00,   4.8,  57,   4.2,   3.7,   3.5,   0.0,  1.95, 
 04/04/02, 17:00,   3.4,  57,   4.3,   3.7,   3.5,   0.0,  1.16, 
 04/04/02, 18:00,   2.2,  66,   4.2,   3.8,   3.5,   0.0,  0.30, 
 04/04/02, 19:00,   0.9,  69,   4.1,   3.8,   3.5,   0.0,  0.00, 
 04/04/02, 20:00,  -0.5,  74,   3.9,   3.8,   3.5,   0.0,  0.00, 
 04/04/02, 21:00,  -1.4,  80,   3.7,   3.8,   3.4,   0.0,  0.00, 
 04/04/02, 22:00,  -1.4,  80,   3.5,   3.8,   3.5,   0.0,  0.00, 
 04/04/02, 23:00,  -1.7,  81,   3.3,   3.8,   3.5,   0.0,  0.00, 
 04/04/03, 00:00,  -1.8,  80,   3.1,   3.8,   3.5,   0.0,  0.00, 
 04/04/03, 01:00,  -0.9,  70,   2.9,   3.7,   3.5,   0.0,  0.00, 
 04/04/03, 02:00,  -0.7,  72,   2.8,   3.7,   3.5,   0.0,  0.00, 
 04/04/03, 03:00,  -0.6,  73,   2.6,   3.6,   3.5,   0.0,  0.00, 
 04/04/03, 04:00,  -0.4,  70,   2.5,   3.4,   3.4,   0.0,  0.00, 
 04/04/03, 05:00,  -0.6,  74,   2.4,   3.5,   3.5,   0.5,  0.00, 
 04/04/03, 06:00,  -0.9,  73,   2.3,   3.3,   3.4,   0.0,  0.00, 
 04/04/03, 07:00,  -0.5,  71,   2.2,   3.2,   3.4,   0.0,  0.17, 
 04/04/03, 08:00,   0.4,  67,   2.1,   3.2,   3.4,   0.0,  0.65, 
 04/04/03, 09:00,   1.8,  58,   2.1,   3.1,   3.4,   0.0,  1.73, 
 04/04/03, 10:00,   3.4,  53,   2.1,   3.0,   3.4,   0.0,  2.44, 
 04/04/03, 11:00,   3.7,  58,   2.4,   3.0,   3.5,   0.0,  0.99, 
 04/04/03, 12:00,   6.0,  52,   2.8,   3.1,   3.5,   0.0,  2.56, 
 04/04/03, 13:00,   4.4,  59,   3.4,   3.1,   3.5,   0.0,  1.67, 
 04/04/03, 14:00,   4.2,  66,   3.9,   3.1,   3.5,   0.0,  0.80, 
 04/04/03, 15:00,   3.5,  76,   4.1,   3.1,   3.5,   0.0,  0.67, 
 04/04/03, 16:00,   2.6,  85,   4.2,   3.2,   3.5,   0.0,  0.52, 
 04/04/03, 17:00,   1.4,  99,   4.2,   3.3,   3.5,   0.0,  0.12, 
 04/04/03, 18:00,   0.7,  99,   4.2,   3.3,   3.4,   0.0,  0.00, 
 04/04/03, 19:00,   0.4,  99,   4.1,   3.5,   3.4,   0.5,  0.00, 
 04/04/03, 20:00,   0.0,  99,   3.9,   3.6,   3.4,   1.5,  0.00, 
 04/04/03, 21:00,  -0.1,  99,   3.8,   3.6,   3.4,   1.0,  0.00, 
 04/04/03, 22:00,   0.3,  99,   3.6,   3.5,   3.3,   0.0,  0.00, 
 04/04/03, 23:00,   0.3,  96,   3.5,   3.6,   3.4,   0.5,  0.00, 
 04/04/04, 00:00,  -0.2,  99,   3.4,   3.6,   3.4,   0.0,  0.00, 
 04/04/04, 01:00,  -0.4,  99,   3.3,   3.6,   3.3,   0.0,  0.00, 
 04/04/04, 02:00,  -0.5,  99,   3.2,   3.5,   3.3,   0.0,  0.00, 
 04/04/04, 03:00,  -0.4,  99,   3.1,   3.4,   3.3,   0.0,  0.00, 
 04/04/04, 04:00,  -0.8,  98,   3.0,   3.4,   3.4,   1.0,  0.00, 
 04/04/04, 05:00,  -0.5,  96,   2.8,   3.4,   3.4,   0.0,  0.00, 
 04/04/04, 06:00,  -0.7,  99,   2.9,   3.3,   3.4,   0.0,  0.00, 
 04/04/04, 07:00,   0.0,  99,   2.7,   3.3,   3.4,   0.5,  0.04, 
 04/04/04, 08:00,  -0.1,  99,   2.8,   3.3,   3.4,   0.5,  0.14, 
 04/04/04, 09:00,   0.0,  99,   2.7,   3.2,   3.4,   0.5,  0.21, 
 04/04/04, 10:00,   0.6,  99,   2.7,   3.2,   3.5,   1.0,  0.25, 
 04/04/04, 11:00,   0.3,  99,   2.6,   3.2,   3.5,   1.5,  0.28, 
 04/04/04, 12:00,  -0.4,  99,   2.5,   3.1,   3.4,   1.5,  0.19, 
 04/04/04, 13:00,  -0.1,  99,   2.5,   3.1,   3.4,   2.5,  0.23, 
 04/04/04, 14:00,  -0.5,  99,   2.5,   3.1,   3.5,   1.5,  0.22, 
 04/04/04, 15:00,  -0.6,  99,   2.4,   3.0,   3.4,   0.5,  0.14, 
 04/04/04, 16:00,  -0.7,  99,   2.4,   3.0,   3.4,   1.0,  0.09, 
 04/04/04, 17:00,  -1.1,  99,   2.3,   3.0,   3.5,   0.5,  0.01, 
 04/04/04, 18:00,  -1.4,  99,   2.3,   3.0,   3.3,   0.5,  0.00, 
 04/04/04, 19:00,  -1.8,  99,   2.3,   2.9,   3.3,   0.5,  0.00, 
 04/04/04, 20:00,  -1.9,  99,   2.2,   2.9,   3.3,   0.0,  0.00, 
 04/04/04, 21:00,  -2.1,  99,   2.3,   2.9,   3.3,   0.0,  0.00, 
 04/04/04, 22:00,  -2.3,  99,   2.3,   2.9,   3.3,   0.0,  0.00, 
 04/04/04, 23:00,  -2.5,  99,   2.2,   2.8,   3.3,   0.0,  0.00, 
 04/04/05, 00:00,  -2.6,  99,   2.1,   2.8,   3.3,   0.0,  0.00, 
 04/04/05, 01:00,  -2.5,  99,   2.1,   2.8,   3.3,   0.0,  0.00, 
 04/04/05, 02:00,  -2.8,  99,   2.1,   2.8,   3.3,   0.0,  0.00, 
 04/04/05, 03:00,  -3.3,  99,   2.1,   2.7,   3.3,   0.0,  0.00, 
 04/04/05, 04:00,  -3.7,  99,   2.0,   2.7,   3.3,   0.0,  0.00, 
 04/04/05, 05:00,  -3.7,  99,   2.0,   2.7,   3.3,   0.0,  0.00, 
 04/04/05, 06:00,  -4.2,  98,   2.0,   2.7,   3.3,   0.0,  0.00, 
 04/04/05, 07:00,  -4.0,  98,   1.9,   2.7,   3.3,   0.0,  0.11, 
 04/04/05, 08:00,  -3.6,  99,   2.0,   2.6,   3.2,   0.0,  0.31, 
 04/04/05, 09:00,  -3.0,  93,   2.0,   2.6,   3.2,   0.0,  0.57, 
 04/04/05, 10:00,  -0.8,  99,   2.0,   2.6,   3.2,   0.5,  0.93, 
 04/04/05, 11:00,   0.9,  94,   2.0,   2.6,   3.3,   0.0,  1.69, 
 04/04/05, 12:00,   2.2,  74,   2.1,   2.7,   3.3,   0.0,  3.34, 
 04/04/05, 13:00,   4.7,  54,   2.2,   2.6,   3.3,   0.0,  3.47, 
 04/04/05, 14:00,   5.9,  53,   2.4,   2.5,   3.3,   0.0,  3.20, 
 04/04/05, 15:00,   7.0,  50,   2.5,   2.5,   3.3,   0.0,  2.71, 
 04/04/05, 16:00,   6.1,  46,   2.5,   2.7,   3.3,   0.0,  2.08, 
 04/04/05, 17:00,   6.1,  44,   2.5,   2.6,   3.1,   0.0,  1.30, 
 04/04/05, 18:00,   5.0,  49,   2.5,   2.6,   3.2,   0.0,  0.46, 
 04/04/05, 19:00,   3.3,  52,   2.4,   2.6,   3.1,   0.0,  0.00, 
 04/04/05, 20:00,   2.8,  53,   2.4,   2.8,   3.1,   0.0,  0.00, 
 04/04/05, 21:00,   2.6,  63,   2.3,   2.7,   3.1,   0.0,  0.00, 
 04/04/05, 22:00,   1.4,  73,   2.2,   2.7,   3.1,   0.0,  0.00, 
 04/04/05, 23:00,   1.2,  71,   2.2,   2.7,   3.1,   0.0,  0.00, 
 04/04/06, 00:00,   0.7,  74,   2.1,   2.7,   3.1,   0.0,  0.00, 
 04/04/06, 01:00,   0.1,  76,   2.0,   2.7,   3.1,   0.0,  0.00, 
 04/04/06, 02:00,  -0.3,  77,   1.9,   2.6,   3.1,   0.0,  0.00, 
 04/04/06, 03:00,   0.7,  70,   1.8,   2.6,   3.1,   0.0,  0.00, 
 04/04/06, 04:00,   1.0,  66,   1.8,   2.6,   3.1,   0.0,  0.00, 
 04/04/06, 05:00,   0.0,  66,   1.7,   2.6,   3.1,   0.0,  0.00, 
 04/04/06, 06:00,   2.3,  57,   1.6,   2.5,   3.1,   0.0,  0.00, 
 04/04/06, 07:00,   4.6,  44,   1.5,   2.5,   3.1,   0.0,  0.47, 
 04/04/06, 08:00,   5.7,  41,   1.5,   2.4,   3.1,   0.0,  1.35, 
 04/04/06, 09:00,   7.6,  36,   1.5,   2.4,   3.1,   0.0,  2.15, 
 04/04/06, 10:00,  10.6,  36,   1.5,   2.4,   3.2,   0.0,  2.70, 
 04/04/06, 11:00,   9.1,  45,   1.8,   2.4,   3.1,   0.0,  3.05, 
 04/04/06, 12:00,  11.9,  41,   2.6,   2.4,   3.1,   0.0,  3.24, 
 04/04/06, 13:00,  12.0,  42,   3.8,   2.4,   3.2,   0.0,  3.30, 
 04/04/06, 14:00,  12.2,  44,   4.7,   2.5,   3.2,   0.0,  2.78, 
 04/04/06, 15:00,  11.3,  51,   5.2,   2.7,   3.2,   0.0,  1.98, 
 04/04/06, 16:00,  10.1,  56,   5.4,   2.9,   3.1,   0.0,  1.29, 
 04/04/06, 17:00,   8.1,  63,   5.6,   3.2,   3.1,   0.0,  0.60, 
 04/04/06, 18:00,   6.8,  68,   5.7,   3.4,   3.1,   0.0,  0.26, 
 04/04/06, 19:00,   5.4,  73,   5.6,   3.6,   3.1,   0.0,  0.00, 
 04/04/06, 20:00,   4.8,  72,   5.4,   3.7,   3.1,   0.0,  0.00, 
 04/04/06, 21:00,   4.5,  73,   5.2,   3.9,   3.1,   0.0,  0.00, 
 04/04/06, 22:00,   3.6,  78,   4.9,   3.9,   3.2,   0.0,  0.00, 
 04/04/06, 23:00,   3.7,  75,   4.7,   4.0,   3.2,   0.0,  0.00, 
 04/04/07, 00:00,   3.3,  73,   4.5,   4.0,   3.2,   0.0,  0.00, 
 04/04/07, 01:00,   4.0,  79,   4.3,   4.0,   3.2,   0.0,  0.00, 
 04/04/07, 02:00,   4.2,  84,   4.1,   4.0,   3.1,   0.0,  0.00, 
 04/04/07, 03:00,   4.3,  84,   3.9,   4.0,   3.2,   0.0,  0.00, 
 04/04/07, 04:00,   4.0,  79,   3.8,   4.0,   3.2,   0.0,  0.00, 
 04/04/07, 05:00,   4.0,  76,   3.7,   4.0,   3.2,   0.0,  0.00, 
 04/04/07, 06:00,   4.7,  67,   3.7,   3.9,   3.3,   0.0,  0.00, 
 04/04/07, 07:00,   4.9,  68,   3.6,   3.9,   3.3,   0.0,  0.04, 
 04/04/07, 08:00,   6.0,  64,   3.6,   3.8,   3.3,   0.0,  0.51, 
 04/04/07, 09:00,   7.0,  58,   3.7,   3.8,   3.4,   0.0,  0.79, 
 04/04/07, 10:00,   9.6,  48,   3.9,   3.8,   3.4,   0.0,  1.92, 
 04/04/07, 11:00,  10.6,  51,   4.3,   3.8,   3.4,   0.0,  2.53, 
 04/04/07, 12:00,  11.6,  52,   5.0,   3.8,   3.4,   0.0,  2.92, 
 04/04/07, 13:00,  12.2,  55,   5.9,   3.9,   3.5,   0.0,  3.09, 
 04/04/07, 14:00,  11.3,  58,   6.7,   4.0,   3.5,   0.0,  1.90, 
 04/04/07, 15:00,  10.1,  62,   7.1,   4.1,   3.5,   0.0,  0.44, 
 04/04/07, 16:00,   8.7,  72,   7.2,   4.3,   3.5,   0.0,  0.02, 
 04/04/07, 17:00,   7.0,  85,   7.1,   4.4,   3.4,   0.0,  0.00, 
 04/04/07, 18:00,   6.2,  93,   6.9,   4.7,   3.5,   0.0,  0.00, 
 04/04/07, 19:00,   6.2,  92,   6.8,   4.9,   3.5,   0.0,  0.00, 
 04/04/07, 20:00,   5.9,  98,   6.6,   5.0,   3.6,   0.0,  0.00, 
 04/04/07, 21:00,   5.5,  99,   6.4,   5.0,   3.6,   0.0,  0.00, 
 04/04/07, 22:00,   5.0,  99,   6.2,   5.1,   3.6,   2.5,  0.00, 
 04/04/07, 23:00,   5.2,  99,   6.2,   5.1,   3.6,   2.0,  0.00, 
 04/04/08, 00:00,   4.4,  99,   6.0,   5.2,   3.7,   3.5,  0.00, 
 04/04/08, 01:00,   3.7,  99,   5.9,   5.2,   3.7,   2.0,  0.00, 
 04/04/08, 02:00,   2.1,  99,   5.8,   5.2,   3.7,   1.5,  0.00, 
 04/04/08, 03:00,   1.1,  99,   5.6,   5.2,   3.7,   1.0,  0.00, 
 04/04/08, 04:00,   0.7,  99,   5.3,   5.1,   3.7,   0.0,  0.00, 
 04/04/08, 05:00,  -0.7,  99,   5.3,   5.2,   3.8,   0.0,  0.00, 
 04/04/08, 06:00,  -1.1,  99,   5.1,   5.1,   3.9,   0.0,  0.00, 
 04/04/08, 07:00,  -1.5,  99,   4.9,   5.1,   3.9,   0.0,  0.06, 
 04/04/08, 08:00,  -1.1,  99,   4.8,   5.1,   3.9,   0.0,  0.92, 
 04/04/08, 09:00,  -1.3,  99,   4.8,   4.9,   4.0,   0.5,  1.23, 
 04/04/08, 10:00,   0.0,  98,   4.9,   4.9,   4.0,   0.0,  2.17, 
 04/04/08, 11:00,   1.1,  61,   5.2,   4.8,   4.0,   0.0,  3.27, 
 04/04/08, 12:00,   4.7,  43,   6.0,   4.9,   4.0,   0.0,  3.52, 
 04/04/08, 13:00,   4.3,  42,   6.9,   4.9,   4.0,   0.0,  3.52, 
 04/04/08, 14:00,   4.0,  51,   7.5,   5.0,   4.1,   0.0,  3.26, 
 04/04/08, 15:00,   3.0,  42,   7.5,   5.1,   4.1,   0.0,  2.76, 
 04/04/08, 16:00,   3.3,  45,   7.3,   5.2,   4.1,   0.0,  2.13, 
 04/04/08, 17:00,   2.5,  44,   7.1,   5.3,   4.1,   0.0,  1.34, 
 04/04/08, 18:00,   1.8,  51,   6.8,   5.4,   4.1,   0.0,  0.49, 
 04/04/08, 19:00,  -1.0,  67,   6.4,   5.6,   4.1,   0.0,  0.02, 
 04/04/08, 20:00,  -1.1,  64,   6.1,   5.5,   4.2,   0.0,  0.00, 
 04/04/08, 21:00,  -1.2,  64,   5.7,   5.6,   4.2,   0.0,  0.00, 
 04/04/08, 22:00,  -0.9,  59,   5.4,   5.5,   4.1,   0.0,  0.00, 
 04/04/08, 23:00,   0.6,  49,   5.1,   5.4,   4.1,   0.0,  0.00, 
 04/04/09, 00:00,   0.8,  48,   4.7,   5.3,   4.1,   0.0,  0.00, 
 04/04/09, 01:00,   1.0,  46,   4.5,   5.2,   4.2,   0.0,  0.00, 
 04/04/09, 02:00,   1.4,  37,   4.2,   5.2,   4.2,   0.0,  0.00, 
 04/04/09, 03:00,   0.5,  53,   4.1,   5.1,   4.2,   0.0,  0.00, 
 04/04/09, 04:00,   0.9,  71,   3.9,   4.9,   4.2,   0.0,  0.00, 
 04/04/09, 05:00,   0.5,  68,   3.7,   4.8,   4.2,   0.0,  0.00, 
 04/04/09, 06:00,   0.6,  65,   3.5,   4.7,   4.2,   0.0,  0.00, 
 04/04/09, 07:00,   2.5,  61,   3.3,   4.6,   4.2,   0.0,  0.51, 
 04/04/09, 08:00,   3.8,  43,   3.2,   4.5,   4.3,   0.0,  1.37, 
 04/04/09, 09:00,   4.2,  37,   3.1,   4.4,   4.3,   0.0,  2.13, 
 04/04/09, 10:00,   6.7,  38,   3.3,   4.3,   4.4,   0.0,  2.73, 
 04/04/09, 11:00,   6.5,  35,   3.8,   4.3,   4.3,   0.0,  3.16, 
 04/04/09, 12:00,   8.3,  34,   4.8,   4.3,   4.3,   0.0,  3.37, 
 04/04/09, 13:00,   9.5,  34,   5.9,   4.3,   4.4,   0.0,  3.35, 
 04/04/09, 14:00,   9.6,  34,   6.8,   4.4,   4.2,   0.0,  3.12, 
 04/04/09, 15:00,   9.6,  35,   7.1,   4.6,   4.2,   0.0,  2.63, 
 04/04/09, 16:00,   9.5,  32,   7.1,   4.8,   4.2,   0.0,  2.02, 
 04/04/09, 17:00,   8.9,  34,   7.0,   5.0,   4.2,   0.0,  1.23, 
 04/04/09, 18:00,   7.9,  34,   6.8,   5.1,   4.3,   0.0,  0.44, 
 04/04/09, 19:00,   6.8,  35,   6.6,   5.2,   4.3,   0.0,  0.01, 
 04/04/09, 20:00,   6.8,  37,   6.3,   5.3,   4.3,   0.0,  0.00, 
 04/04/09, 21:00,   6.4,  34,   6.0,   5.4,   4.3,   0.0,  0.00, 
 04/04/09, 22:00,   5.0,  38,   5.8,   5.4,   4.3,   0.0,  0.00, 
 04/04/09, 23:00,   5.8,  33,   5.5,   5.4,   4.3,   0.0,  0.00, 
 04/04/10, 00:00,   5.3,  33,   5.3,   5.4,   4.3,   0.0,  0.00, 
 04/04/10, 01:00,   4.7,  35,   5.0,   5.3,   4.4,   0.0,  0.00, 
 04/04/10, 02:00,   4.1,  38,   4.8,   5.2,   4.3,   0.0,  0.00, 
 04/04/10, 03:00,   3.6,  41,   4.6,   5.2,   4.3,   0.0,  0.00, 
 04/04/10, 04:00,   3.5,  40,   4.4,   5.1,   4.4,   0.0,  0.00, 
 04/04/10, 05:00,   3.7,  43,   4.2,   5.0,   4.3,   0.0,  0.00, 
 04/04/10, 06:00,   3.6,  40,   4.1,   5.0,   4.4,   0.0,  0.00, 
 04/04/10, 07:00,   5.3,  42,   3.9,   4.8,   4.5,   0.0,  0.56, 
 04/04/10, 08:00,   8.2,  32,   3.9,   4.8,   4.5,   0.0,  1.44, 
 04/04/10, 09:00,   8.8,  36,   4.0,   4.8,   4.5,   0.0,  2.22, 
 04/04/10, 10:00,  11.0,  36,   4.1,   4.7,   4.5,   0.0,  2.82, 
 04/04/10, 11:00,  11.7,  33,   4.6,   4.6,   4.5,   0.0,  3.24, 
 04/04/10, 12:00,  13.5,  32,   5.7,   4.6,   4.5,   0.0,  3.48, 
 04/04/10, 13:00,  14.9,  29,   7.0,   4.7,   4.5,   0.0,  3.44, 
 04/04/10, 14:00,  14.9,  27,   7.9,   4.8,   4.5,   0.0,  3.20, 
 04/04/10, 15:00,  15.6,  23,   8.2,   5.0,   4.5,   0.0,  2.75, 
 04/04/10, 16:00,  14.1,  26,   8.2,   5.2,   4.5,   0.0,  1.93, 
 04/04/10, 17:00,  13.8,  25,   8.0,   5.5,   4.5,   0.0,  1.09, 
 04/04/10, 18:00,  10.9,  36,   8.0,   5.7,   4.5,   0.0,  0.42, 
 04/04/10, 19:00,   9.9,  35,   7.9,   5.8,   4.5,   0.0,  0.00, 
 04/04/10, 20:00,   8.2,  46,   7.5,   5.9,   4.4,   0.0,  0.00, 
 04/04/10, 21:00,   8.0,  48,   7.2,   6.0,   4.4,   0.0,  0.00, 
 04/04/10, 22:00,   8.2,  47,   7.1,   6.1,   4.4,   0.0,  0.00, 
 04/04/10, 23:00,   6.1,  56,   6.8,   6.0,   4.3,   0.0,  0.00, 
 04/04/11, 00:00,   5.3,  60,   6.6,   6.1,   4.6,   0.0,  0.00, 
 04/04/11, 01:00,   6.1,  55,   6.2,   6.0,   4.6,   0.0,  0.00, 
 04/04/11, 02:00,   5.5,  57,   6.0,   6.0,   4.6,   0.0,  0.00, 
 04/04/11, 03:00,   4.9,  59,   5.9,   5.9,   4.5,   0.0,  0.00, 
 04/04/11, 04:00,   4.8,  60,   5.7,   5.9,   4.7,   0.0,  0.00, 
 04/04/11, 05:00,   4.4,  62,   5.5,   5.9,   4.7,   0.0,  0.00, 
 04/04/11, 06:00,   5.6,  54,   5.4,   5.7,   4.7,   0.0,  0.01, 
 04/04/11, 07:00,   6.5,  56,   5.3,   5.6,   4.6,   0.0,  0.25, 
 04/04/11, 08:00,   9.5,  41,   5.2,   5.7,   4.8,   0.0,  0.92, 
 04/04/11, 09:00,  10.4,  40,   5.3,   5.6,   4.8,   0.0,  1.45, 
 04/04/11, 10:00,  11.6,  41,   5.6,   5.6,   4.8,   0.0,  2.30, 
 04/04/11, 11:00,  12.7,  39,   6.1,   5.5,   4.8,   0.0,  2.69, 
 04/04/11, 12:00,  14.6,  35,   7.0,   5.5,   4.8,   0.0,  3.10, 
 04/04/11, 13:00,  14.7,  31,   8.0,   5.6,   4.8,   0.0,  2.09, 
 04/04/11, 14:00,  14.8,  38,   8.6,   5.7,   4.8,   0.0,  2.20, 
 04/04/11, 15:00,  14.1,  37,   8.8,   5.9,   4.8,   0.0,  1.83, 
 04/04/11, 16:00,  13.2,  37,   9.0,   6.1,   4.8,   0.0,  1.06, 
 04/04/11, 17:00,  12.2,  38,   9.0,   6.3,   4.9,   0.0,  0.59, 
 04/04/11, 18:00,  10.8,  42,   9.0,   6.4,   4.9,   0.0,  0.45, 
 04/04/11, 19:00,   8.9,  50,   8.8,   6.6,   4.9,   0.0,  0.01, 
 04/04/11, 20:00,   7.7,  52,   8.6,   6.7,   4.9,   0.0,  0.00, 
 04/04/11, 21:00,   6.9,  63,   8.3,   6.8,   4.9,   0.0,  0.00, 
 04/04/11, 22:00,   6.4,  70,   8.0,   6.8,   4.9,   0.0,  0.00, 
 04/04/11, 23:00,   7.4,  68,   7.7,   6.8,   5.0,   0.0,  0.00, 
 04/04/12, 00:00,   5.6,  76,   7.4,   6.8,   5.0,   0.0,  0.00, 
 04/04/12, 01:00,   5.8,  73,   7.2,   6.8,   5.0,   0.0,  0.00, 
 04/04/12, 02:00,   5.8,  85,   7.0,   6.8,   5.0,   0.0,  0.00, 
 04/04/12, 03:00,   4.6,  91,   6.8,   6.7,   5.1,   0.0,  0.00, 
 04/04/12, 04:00,   6.2,  87,   6.6,   6.6,   5.1,   0.0,  0.00, 
 04/04/12, 05:00,   4.6,  94,   6.4,   6.6,   5.1,   0.0,  0.00, 
 04/04/12, 06:00,   4.4,  94,   6.2,   6.5,   5.2,   0.0,  0.02, 
 04/04/12, 07:00,   5.9,  87,   6.0,   6.4,   5.2,   0.0,  0.44, 
 04/04/12, 08:00,  10.0,  62,   6.0,   6.3,   5.2,   0.0,  1.29, 
 04/04/12, 09:00,  11.4,  59,   6.1,   6.3,   5.2,   0.0,  2.08, 
 04/04/12, 10:00,  11.8,  53,   6.3,   6.2,   5.2,   0.0,  2.71, 
 04/04/12, 11:00,  12.3,  50,   6.9,   6.2,   5.3,   0.0,  3.16, 
 04/04/12, 12:00,  13.9,  51,   7.9,   6.2,   5.3,   0.0,  3.25, 
 04/04/12, 13:00,  14.4,  47,   9.0,   6.3,   5.3,   0.0,  3.23, 
 04/04/12, 14:00,  13.9,  42,   9.7,   6.4,   5.2,   0.0,  2.95, 
 04/04/12, 15:00,  14.3,  43,   9.9,   6.6,   5.2,   0.0,  2.41, 
 04/04/12, 16:00,  12.9,  43,   9.9,   6.9,   5.2,   0.0,  1.58, 
 04/04/12, 17:00,  11.9,  43,   9.9,   7.0,   5.3,   0.0,  0.90, 
 04/04/12, 18:00,  10.9,  49,   9.7,   7.2,   5.3,   0.0,  0.28, 
 04/04/12, 19:00,   9.6,  50,   9.5,   7.3,   5.3,   0.0,  0.01, 
 04/04/12, 20:00,   8.2,  55,   9.2,   7.4,   5.4,   0.0,  0.00, 
 04/04/12, 21:00,   7.6,  52,   8.9,   7.5,   5.4,   0.0,  0.00, 
 04/04/12, 22:00,   7.9,  52,   8.7,   7.5,   5.4,   0.0,  0.00, 
 04/04/12, 23:00,   7.0,  59,   8.4,   7.5,   5.4,   0.0,  0.00, 
 04/04/13, 00:00,   5.7,  67,   8.1,   7.5,   5.5,   0.0,  0.00, 
 04/04/13, 01:00,   6.2,  65,   7.9,   7.5,   5.5,   0.0,  0.00, 
 04/04/13, 02:00,   6.5,  62,   7.6,   7.4,   5.5,   0.0,  0.00, 
 04/04/13, 03:00,   5.9,  65,   7.5,   7.4,   5.5,   0.0,  0.00, 
 04/04/13, 04:00,   6.3,  61,   7.2,   7.3,   5.6,   0.0,  0.00, 
 04/04/13, 05:00,   6.2,  62,   7.2,   7.2,   5.6,   0.0,  0.00, 
 04/04/13, 06:00,   5.7,  64,   6.8,   7.2,   5.6,   0.0,  0.03, 
 04/04/13, 07:00,   6.1,  64,   6.8,   7.1,   5.6,   0.0,  0.53, 
 04/04/13, 08:00,   8.3,  55,   6.7,   7.0,   5.7,   0.0,  1.34, 
 04/04/13, 09:00,   8.7,  60,   6.8,   6.9,   5.7,   0.0,  2.13, 
 04/04/13, 10:00,  11.5,  54,   6.9,   6.9,   5.7,   0.0,  2.73, 
 04/04/13, 11:00,  12.9,  47,   7.5,   6.8,   5.7,   0.0,  3.15, 
 04/04/13, 12:00,  13.7,  28,   8.4,   6.8,   5.7,   0.0,  3.37, 
 04/04/13, 13:00,  16.3,  32,   9.4,   6.9,   5.7,   0.0,  3.30, 
 04/04/13, 14:00,  14.9,  39,  10.2,   7.0,   5.7,   0.0,  3.06, 
 04/04/13, 15:00,  13.8,  47,  10.4,   7.2,   5.8,   0.0,  2.28, 
 04/04/13, 16:00,  13.2,  56,  10.4,   7.4,   5.8,   0.0,  1.79, 
 04/04/13, 17:00,  11.6,  59,  10.4,   7.6,   5.8,   0.0,  1.11, 
 04/04/13, 18:00,   9.4,  73,  10.3,   7.7,   5.8,   0.0,  0.38, 
 04/04/13, 19:00,   8.6,  80,  10.0,   7.9,   5.8,   0.0,  0.01, 
 04/04/13, 20:00,   7.9,  86,   9.8,   8.0,   5.8,   0.0,  0.00, 
 04/04/13, 21:00,   7.0,  96,   9.4,   8.0,   5.8,   0.0,  0.00, 
 04/04/13, 22:00,   6.9,  97,   9.2,   8.0,   5.9,   0.0,  0.00, 
 04/04/13, 23:00,   5.8,  98,   9.0,   8.1,   5.9,   0.0,  0.00, 
 04/04/14, 00:00,   5.7,  99,   8.8,   8.0,   5.9,   0.0,  0.00, 
 04/04/14, 01:00,   5.7,  99,   8.6,   8.0,   5.9,   0.0,  0.00, 
 04/04/14, 02:00,   6.2,  97,   8.4,   8.0,   5.9,   0.0,  0.00, 
 04/04/14, 03:00,   5.3,  98,   8.3,   7.9,   6.0,   0.0,  0.00, 
 04/04/14, 04:00,   6.3,  95,   8.1,   7.9,   5.9,   0.0,  0.00, 
 04/04/14, 05:00,   5.3,  97,   7.9,   7.8,   6.0,   0.0,  0.00, 
 04/04/14, 06:00,   6.1,  97,   7.8,   7.8,   6.1,   0.0,  0.00, 
 04/04/14, 07:00,   7.3,  90,   7.7,   7.7,   6.1,   0.0,  0.15, 
 04/04/14, 08:00,   7.8,  92,   7.8,   7.7,   6.1,   0.0,  0.31, 
 04/04/14, 09:00,   6.8,  99,   7.7,   7.6,   6.0,   0.0,  0.23, 
 04/04/14, 10:00,   7.0,  99,   7.7,   7.6,   6.0,   0.0,  0.24, 
 04/04/14, 11:00,   7.7,  99,   7.8,   7.5,   6.1,   0.0,  0.54, 
 04/04/14, 12:00,   7.5,  99,   7.9,   7.5,   6.2,   0.0,  0.46, 
 04/04/14, 13:00,   7.2,  99,   8.0,   7.5,   6.1,   0.0,  0.25, 
 04/04/14, 14:00,   7.3,  99,   8.0,   7.5,   6.2,   1.0,  0.36, 
 04/04/14, 15:00,   7.5,  99,   8.1,   7.5,   6.2,   0.5,  0.61, 
 04/04/14, 16:00,   7.4,  99,   8.2,   7.5,   6.2,   0.0,  0.30, 
 04/04/14, 17:00,   7.3,  99,   8.3,   7.5,   6.2,   0.0,  0.13, 
 04/04/14, 18:00,   7.1,  99,   8.2,   7.5,   6.2,   0.0,  0.05, 
 04/04/14, 19:00,   6.2,  99,   8.2,   7.5,   6.2,   0.5,  0.00, 
 04/04/14, 20:00,   5.6,  99,   8.1,   7.5,   6.2,   0.0,  0.00, 
 04/04/14, 21:00,   4.9,  99,   7.9,   7.5,   6.2,   0.0,  0.00, 
 04/04/14, 22:00,   3.5,  99,   7.8,   7.5,   6.2,   0.0,  0.00, 
 04/04/14, 23:00,   3.7,  99,   7.6,   7.5,   6.2,   0.0,  0.00, 
 04/04/15, 00:00,   3.0,  99,   7.4,   7.5,   6.2,   0.0,  0.00, 
 04/04/15, 01:00,   2.3,  99,   7.2,   7.5,   6.2,   0.0,  0.00, 
 04/04/15, 02:00,   1.8,  89,   7.0,   7.4,   6.2,   0.0,  0.00, 
 04/04/15, 03:00,   1.2,  83,   6.7,   7.3,   6.2,   0.0,  0.00, 
 04/04/15, 04:00,   1.6,  70,   6.5,   7.3,   6.2,   0.0,  0.00, 
 04/04/15, 05:00,   2.0,  63,   6.2,   7.2,   6.2,   0.0,  0.00, 
 04/04/15, 06:00,   2.7,  43,   6.1,   7.1,   6.2,   0.0,  0.01, 
 04/04/15, 07:00,   4.3,  56,   5.9,   7.0,   6.2,   0.0,  0.67, 
 04/04/15, 08:00,   7.2,  36,   5.8,   6.9,   6.2,   0.0,  1.52, 
 04/04/15, 09:00,   7.7,  51,   5.9,   6.8,   6.2,   0.0,  2.33, 
 04/04/15, 10:00,   9.2,  42,   6.0,   6.7,   6.2,   0.0,  2.91, 
 04/04/15, 11:00,  10.4,  43,   6.6,   6.7,   6.2,   0.0,  3.33, 
 04/04/15, 12:00,  11.7,  38,   7.6,   6.6,   6.2,   0.0,  3.53, 
 04/04/15, 13:00,  12.7,  31,   8.8,   6.7,   6.3,   0.0,  3.44, 
 04/04/15, 14:00,  13.5,  26,   9.5,   6.8,   6.2,   0.0,  2.99, 
 04/04/15, 15:00,  13.1,  27,   9.6,   7.0,   6.2,   0.0,  2.81, 
 04/04/15, 16:00,  12.3,  26,   9.6,   7.2,   6.2,   0.0,  2.00, 
 04/04/15, 17:00,  12.1,  28,   9.5,   7.4,   6.3,   0.0,  1.05, 
 04/04/15, 18:00,  10.0,  40,   9.4,   7.5,   6.2,   0.0,  0.28, 
 04/04/15, 19:00,   8.3,  73,   9.2,   7.7,   6.3,   0.0,  0.00, 
 04/04/15, 20:00,   7.9,  80,   9.0,   7.7,   6.3,   0.0,  0.00, 
 04/04/15, 21:00,   6.9,  84,   8.8,   7.8,   6.2,   0.0,  0.00, 
 04/04/15, 22:00,   6.2,  90,   8.6,   7.8,   6.2,   0.0,  0.00, 
 04/04/15, 23:00,   6.0,  90,   8.4,   7.8,   6.2,   0.0,  0.00, 
 04/04/16, 00:00,   5.2,  93,   8.2,   7.8,   6.2,   0.0,  0.00, 
 04/04/16, 01:00,   5.0,  81,   8.1,   7.8,   6.3,   0.0,  0.00, 